Regional Weather Roundup
Issued by NWS

Home | Current Version | Previous Version | Graphics & Text | Print | Product List | Glossary On
Versions: 1 2 3 4 5 6 7 8 9 10 11 12 13 14 15 16 17 18 19 20 21 22 23 24 25 26 27 28 29 30 31 32 33 34 35 36 37 38 39 40 41 42 43 44 45 46 47 48 49 50
000
ASUS45 KBOU 241707
RWRCO

WEATHER ROUNDUP FOR COLORADO
NATIONAL WEATHER SERVICE DENVER/BOULDER CO
1100 AM MDT SUN MAY 24 2015

NOTE: "FAIR" INDICATES FEW OR NO CLOUDS BELOW 12000 FEET WITH NO
SIGNIFICANT WEATHER AND/OR OBSTRUCTIONS TO VISIBILITY.

COZ001>005-013-030-031-241800-
...NORTHWEST COLORADO...

CITY           SKY/WX    TMP DP  RH WIND       PRES   REMARKS
CRAIG          LGT RAIN  44  39  82 VRB5      29.97S
HAYDEN         CLOUDY    43  36  75 NW10      29.97R
MEEKER         LGT RAIN  45  38  76 N3        29.96R
MOUNT WERNER   NOT AVBL
STEAMBOAT SPGS CLOUDY    46  35  67 W7        29.95R
WALDEN         PTSUNNY   43  28  56 S10       29.96S
$$

COZ006>008-011-241800-
...WEST CENTRAL VALLEYS...

CITY           SKY/WX    TMP DP  RH WIND       PRES   REMARKS
GRAND JUNCTION MOSUNNY   55  41  59 VRB6      29.94F
MONTROSE       PTSUNNY   54  40  59 CALM      29.98S
EAGLE          PTSUNNY   50  36  57 CALM      29.96F
RIFLE          PTSUNNY   51  40  65 CALM      29.95F
DELTA          MOSUNNY   56  42  60 MISG      29.96F
NUCLA          PTSUNNY   52  37  58 W5        30.02F
$$

COZ017>023-064>068-241800-
...SOUTHWEST COLORADO...

CITY           SKY/WX    TMP DP  RH WIND       PRES   REMARKS
DURANGO        PTSUNNY   48  40  73 SW5       30.00S
CORTEZ         CLOUDY    51  42  71 VRB6      30.00S
PAGOSA SPRINGS DRIZZLE   41  40  95 S5        30.03S
TELLURIDE      CLOUDY    41  31  69 W8        30.05S
WOLF CREEK PAS NOT AVBL
$$

COZ009-010-012-014-032>034-037-058>063-241800-
...CENTRAL COLORADO...

CITY           SKY/WX    TMP DP  RH WIND       PRES   REMARKS
ASPEN          CLOUDY    47  28  47 N3        29.96S
BUENA VISTA    NOT AVBL
COPPER MTN     CLOUDY    34  21  60 SW5       30.07S WCI  30
BERTHOUD PASS  LGT SNOW  23  18  80 MISG      30.10R
COTTONWOOD PAS CLOUDY    45  23  42 CALM      30.02S
GUNNISON       PTSUNNY   46  28  49 SW8       30.01S
KREMMLING      MOSUNNY   50  34  53 S3        29.99F
LEADVILLE      CLOUDY    38  20  48 SW10      29.99F
SALIDA         PTSUNNY   53  29  40 S9        30.03F
SUNLIGHT       LGT SNOW  32  30  93 CALM      30.09R VSB 3/4
WILKERSON PASS PTSUNNY   34  27  75 SW5       30.08F WCI  30
$$

COZ069>075-241800-
...SAN LUIS VALLEY/SANGRE DE CRISTO MOUNTAINS...

CITY           SKY/WX    TMP DP  RH WIND       PRES   REMARKS
ALAMOSA        CLOUDY    50  32  50 S10       29.96F
LA VETA PASS   CLOUDY   N/A N/A N/A MISG      30.03S
SAGUACHE       PTSUNNY   46  34  61 SE7       29.98F
$$

COZ035-036-038>040-241800-
...NORTHERN COLORADO FRONT RANGE...

CITY           SKY/WX    TMP DP  RH WIND       PRES   REMARKS
DENVER INTL AP PTSUNNY   56  44  64 NE10      29.89F
DMNS CITY PARK   N/A     57  42  57 E5        29.89S
AURORA         PTSUNNY   54  43  64 NE8       29.90F
FRONT RANGE AP PTSUNNY   57  46  67 NE7       29.90F
ERIE MUNI ARPT PTSUNNY   57  44  62 NE5       29.89S
BOULDER MUN AP PTSUNNY   55  43  62 E5        29.89S
CENTENNIAL     CLOUDY    54  44  69 NE3       29.89F
BROOMFIELD     PTSUNNY   55  41  58 E6        29.91S
FORT COLLINS   MOSUNNY   57  45  62 E9        29.90S
LONGMONT       MOSUNNY   60  44  53 SE6       29.90S
$$

COZ041-046-047-076>085-087-088-241800-
...PIKES PEAK/PALMER DIVIDE AND SOUTHERN FOOTHILLS...

CITY           SKY/WX    TMP DP  RH WIND       PRES   REMARKS
COLO. SPRINGS  CLOUDY    53  40  61 S8        29.94R
A. F. ACADEMY  CLOUDY    50  36  57 W3        29.94R
ELLICOTT       NOT AVBL
FALCON         PTSUNNY   53  39  59 S6        29.94S
FORT CARSON    PTSUNNY   54  44  67 N5        29.91R
LIMON          PTSUNNY   57  44  62 VRB6      29.91S
MONUMENT HILL  NOT AVBL
TRINIDAD       PTSUNNY   60  41  49 VRB6      29.89S
$$

COZ042>045-048>051-090-091-241800-
...NORTHEAST COLORADO...

CITY           SKY/WX    TMP DP  RH WIND       PRES   REMARKS
GREELEY ARPT   SUNNY     57  46  67 NE6       29.90S
AKRON          CLOUDY    58  46  64 CALM      29.89S
BURLINGTON     CLOUDY    60  52  74 VRB3      29.88F
WRAY           PTSUNNY   62  51  67 CALM      29.88F
STERLING       SUNNY     59  50  72 CALM      29.88F
HOLYOKE        NOT AVBL
FORT MORGAN    SUNNY     58  46  63 NE5       29.89F
$$

COZ086-089-092>099-241800-
...SOUTHEAST COLORADO...

CITY           SKY/WX    TMP DP  RH WIND       PRES   REMARKS
PUEBLO         PTSUNNY   60  47  61 SE8       29.88R
LA JUNTA       SUNNY     61  51  70 CALM      29.86F
LAMAR          MOSUNNY   65  52  62 VRB5      29.84S
SPRINGFIELD      N/A     65  52  62 E7        29.86S
$$


USA.gov is the U.S. government's official web portal to all federal, state and local government web resources and services.